星链-35535(STARLINK-35535)

导读

STARLINK-35535是美国SpaceX公司“星链”星座的一员,于2025年11月6日发射入轨,属于低轨通信卫星。星链星座旨在为全球提供高速宽带互联网服务,该卫星采用平板设计,搭载Ku/Ka波段通信载荷,配备氪工质霍尔推进器,具备自主避撞能力,设计寿命约5-7年,退役后会主动离轨再入大气层烧毁,进一步扩充了星链星座的全球覆盖与通信容量。

基本信息
目录编号:
66342
目录名称:
STARLINK-35535
国际标识:
2025-253Z
轨道中心:
EARTH
卫星名称:
星链-35535
卫星全名:
星链-35535(STARLINK-35535)
卫星状态:
在轨 (已飞行302 天)
发射日期:
2025-11-06 UTC
国别 :
美国 (US)
星等 :
--
轨道信息
数据来源 国际轨道数据
星历时间: 2026-09-03T19:26:13+0800
20小时前
查看轨道信息
半长轴: 6861.161km
偏心率: 0.0001398
轨道倾角: 43.000°
近地点辐角 277.923°
升交点赤经 288.549°
平近点角 82.146°
近地点: 482.064km
远地点: 483.984km
周期: 94.266分钟
每日圈数: 15.275885
详细信息
固有亮度:
5
最大亮度:
2.5
卫星平台:
Starlink V1.0
覆盖范围:
全球
运营商:
太空探索技术公司
运营商所在国:
美国
制造商(研发单位):
太空探索技术公司
制造商所在国:
美国
使用方式:
暂无
卫星简介
Starlink 计划是 SpaceX 推出的全球卫星互联网项目,通过发射低轨道卫星,为全球尤其是偏远地区提供高速、低延迟的互联网服务。自 2019 年起,Starlink 已部署数千颗卫星,旨在缩小全球数字鸿沟,推动互联网普及。该项目还为军事、航空等行业提供通信支持,带来广泛经济效益。
2D轨道图
3D轨道图
轨道高度分析图
轨道倾角分析图
轨道综合分析图
查看轨道综合分析图
交会数据列表
事件ID 空间交会对象 最接近时刻(TCA) 交会距离 交会风险概率(CRP) 交会风险指数(CRI) 操作
CDM_260905-071104-283906-634222
2026-09-05T
07:11:30+0000
1.995 km
极远距离
2.778252E-6 低风险 0.44